Weather reports worldwide

Advertisment
London/Heathrow Intl, United Kingdom (3772): temperature & dewpoint: 23.05.2020 13:00:00 - 29.05.2020 13:00:00 (BST)London/Heathrow Intl, United Kingdom (3772): wind speed & gusts: 23.05.2020 13:00:00 - 29.05.2020 13:00:00 (BST)London/Heathrow Intl, United Kingdom (3772): wind direction: 23.05.2020 13:00:00 - 29.05.2020 13:00:00 (BST)London/Heathrow Intl, United Kingdom (3772): reduced air pressure: 23.05.2020 13:00:00 - 29.05.2020 13:00:00 (BST)London/Heathrow Intl, United Kingdom (3772): visibility: 23.05.2020 13:00:00 - 29.05.2020 13:00:00 (BST)London/Heathrow Intl, United Kingdom (3772): sunshine duration: 23.05.2020 13:00:00 - 29.05.2020 13:00:00 (BST)London/Heathrow Intl, United Kingdom (3772): precipitation: 23.05.2020 13:00:00 - 29.05.2020 13:00:00 (BST)
Date & Time tt [°C] td [°C] ff [km/h] ff [kn] fx [km/h] fx [kn] dd ppp [hPa] vv [km] sd [min] rr [mm]
29.05.2020 13:00:00 23,1 1,4 21 11 - - ESE 1027,5 10 60 0,0
29.05.2020 12:00:00 22,1 3,3 18 10 - - E 1028,3 45 60 0,0
29.05.2020 11:00:00 21,4 7,0 13 7 - - E 1028,7 10 60 0,0
29.05.2020 10:00:00 19,7 8,0 15 8 - - ESE 1029,0 10 60 0,0
29.05.2020 09:00:00 17,9 8,8 15 8 - - E 1029,1 10 60 0,0
29.05.2020 08:00:00 16,2 9,5 11 6 - - ENE 1029,2 25 60 0,0
29.05.2020 07:00:00 13,9 8,8 11 6 - - ENE 1029,4 23 36 0,0
29.05.2020 06:00:00 11,9 7,9 9 5 - - ENE 1029,6 10 0 0,0
29.05.2020 05:00:00 11,2 7,0 8 4 - - ENE 1029,6 10 0 0,0
29.05.2020 04:00:00 11,5 6,6 5 3 - - - 1030,0 10 0 0,0
29.05.2020 03:00:00 12,2 6,3 11 6 - - ENE 1030,2 10 0 0,0
29.05.2020 02:00:00 12,7 6,1 11 6 - - ENE 1030,6 20 0 0,0
29.05.2020 01:00:00 13,2 6,2 13 7 - - ENE 1030,7 10 - 0,0
29.05.2020 00:00:00 13,6 6,2 13 7 - - ENE 1031,1 10 0 0,0
28.05.2020 23:00:00 14,3 4,7 11 6 - - E 1031,3 10 0 0,0
28.05.2020 22:00:00 15,4 2,4 11 6 - - ENE 1031,4 10 0 0,0
28.05.2020 21:00:00 16,1 1,7 22 12 - - E 1031,3 10 0 0,0
28.05.2020 20:00:00 17,9 1,5 18 10 - - E 1031,3 45 60 0,0
28.05.2020 19:00:00 19,3 2,9 24 13 - - E 1031,2 45 60 0,0
28.05.2020 18:00:00 20,3 2,9 26 14 - - E 1031,5 45 60 0,0
28.05.2020 17:00:00 20,9 -0,1 22 12 - - E 1031,8 10 60 0,0
28.05.2020 16:00:00 21,5 0,2 21 11 - - E 1032,2 10 60 0,0
28.05.2020 15:00:00 22,1 1,5 21 11 - - E 1032,8 10 60 0,0
28.05.2020 14:00:00 21,6 2,7 21 11 - - ENE 1033,2 10 60 0,0
28.05.2020 13:00:00 21,4 3,2 16 9 - - E 1033,7 10 60 0,0
28.05.2020 12:00:00 20,3 2,5 18 10 - - E 1034,1 10 60 0,0
28.05.2020 11:00:00 19,8 5,2 16 9 - - E 1034,6 35 60 0,0
28.05.2020 10:00:00 17,7 7,8 16 9 - - E 1035,3 10 60 0,0
28.05.2020 09:00:00 15,6 9,4 11 6 - - ENE 1035,8 25 54 0,0
28.05.2020 08:00:00 14,3 9,4 13 7 - - ENE 1036,1 10 60 0,0
28.05.2020 07:00:00 12,9 9,0 11 6 - - ENE 1036,1 10 30 0,0
28.05.2020 06:00:00 11,8 9,0 11 6 - - ENE 1035,9 10 0 0,0
28.05.2020 05:00:00 11,8 8,9 8 4 - - ENE 1035,7 10 0 0,0
28.05.2020 04:00:00 12,9 7,6 11 6 - - ENE 1035,7 10 0 0,0
28.05.2020 03:00:00 13,4 8,2 9 5 - - ENE 1035,6 40 0 0,0
28.05.2020 02:00:00 14,0 8,9 11 6 - - E 1035,6 10 0 0,0
28.05.2020 01:00:00 14,9 9,0 13 7 - - E 1035,8 10 - 0,0
28.05.2020 00:00:00 15,3 8,5 13 7 - - E 1035,9 45 0 0,0
27.05.2020 23:00:00 16,6 8,8 18 10 - - E 1035,8 10 0 0,0
27.05.2020 22:00:00 19,5 9,6 16 9 - - ENE 1035,2 10 0 0,0
27.05.2020 21:00:00 21,4 11,1 13 7 - - SSE 1034,1 10 0 0,0
27.05.2020 20:00:00 23,5 10,5 13 7 - - NNE 1033,6 40 54 0,0
27.05.2020 19:00:00 24,7 10,4 13 7 - - NE 1033,4 10 60 0,0
27.05.2020 18:00:00 24,9 9,3 5 3 - - - 1033,5 10 60 0,0
27.05.2020 17:00:00 24,7 10,2 11 6 - - NE 1033,7 10 60 0,0
27.05.2020 16:00:00 26,3 11,3 8 4 - - NNE 1034,1 10 36 0,0
27.05.2020 15:00:00 24,8 10,1 8 4 - - WNW 1034,3 10 30 0,0
27.05.2020 14:00:00 23,8 10,3 8 4 - - NNE 1034,7 10 6 0,0
27.05.2020 13:00:00 23,7 10,3 5 3 - - - 1035,2 10 0 0,0
27.05.2020 12:00:00 22,7 9,6 9 5 - - N 1035,4 30 48 0,0
27.05.2020 11:00:00 23,3 10,5 5 3 - - - 1035,8 10 60 0,0
27.05.2020 10:00:00 20,6 9,9 4 2 - - - 1036,0 10 60 0,0
27.05.2020 09:00:00 19,2 9,7 5 3 - - - 1036,0 10 48 0,0
27.05.2020 08:00:00 17,9 9,2 4 2 - - - 1036,1 10 24 0,0
27.05.2020 07:00:00 15,8 8,9 4 2 - - - 1035,9 10 0 0,0
27.05.2020 06:00:00 14,8 8,8 4 2 - - - 1035,8 10 0 0,0
27.05.2020 05:00:00 14,4 8,2 5 3 - - - 1035,8 10 0 0,0
27.05.2020 04:00:00 14,2 8,0 8 4 - - NE 1035,8 10 0 0,0
27.05.2020 03:00:00 14,8 7,0 4 2 - - NNE 1035,7 10 0 0,0
27.05.2020 02:00:00 14,9 6,5 4 2 - - ENE 1035,8 10 0 0,0
27.05.2020 01:00:00 16,1 7,9 9 5 - - ENE 1035,9 10 - 0,0
27.05.2020 00:00:00 17,7 10,0 16 9 - - E 1035,3 10 0 0,0
26.05.2020 23:00:00 20,3 11,4 5 3 - - NNW 1035,0 10 0 0,0
26.05.2020 22:00:00 21,2 11,2 8 4 - - N 1035,0 10 0 0,0
26.05.2020 21:00:00 22,5 11,4 9 5 - - N 1034,7 10 0 0,0
26.05.2020 20:00:00 24,0 11,4 8 4 - - NNW 1034,4 10 48 0,0
26.05.2020 19:00:00 24,6 10,1 8 4 - - NNW 1034,3 10 54 0,0
26.05.2020 18:00:00 25,6 4,2 9 5 - - NNW 1034,5 10 60 0,0
26.05.2020 17:00:00 25,9 1,3 13 7 - - NW 1034,6 10 60 0,0
26.05.2020 16:00:00 25,9 4,3 11 6 - - NNW 1034,9 10 54 0,0
26.05.2020 15:00:00 25,1 5,2 11 6 - - WNW 1035,2 10 60 0,0
26.05.2020 14:00:00 24,8 7,1 15 8 - - WSW 1035,5 40 60 0,0
26.05.2020 13:00:00 24,8 8,1 15 8 - - W 1035,7 35 42 0,0
26.05.2020 12:00:00 23,8 9,2 13 7 - - WSW 1035,9 40 54 0,0
26.05.2020 11:00:00 22,4 7,9 13 7 - - SW 1036,1 35 60 0,0
26.05.2020 10:00:00 20,4 9,4 5 3 - - - 1036,2 10 48 0,0
26.05.2020 09:00:00 17,5 9,4 5 3 - - - 1036,6 10 24 0,0
26.05.2020 08:00:00 16,6 8,6 4 2 - - - 1036,2 10 60 0,0
26.05.2020 07:00:00 14,1 9,4 5 3 - - - 1036,0 10 36 0,0
26.05.2020 06:00:00 12,3 8,4 4 2 - - WNW 1035,9 30 0 0,0
26.05.2020 05:00:00 12,0 8,2 5 3 - - WNW 1035,6 10 0 0,0
26.05.2020 04:00:00 12,8 8,9 4 2 - - - 1035,3 10 0 0,0
26.05.2020 03:00:00 13,8 8,9 4 2 - - W 1035,2 10 0 0,0
26.05.2020 02:00:00 13,8 8,6 8 4 - - SSW 1034,9 30 0 0,0
26.05.2020 01:00:00 14,8 8,5 8 4 - - SSW 1035,0 10 - 0,0
26.05.2020 00:00:00 16,1 9,2 8 4 - - SSW 1035,0 10 0 0,0
25.05.2020 23:00:00 16,9 8,6 9 5 - - WSW 1034,7 10 0 0,0
25.05.2020 22:00:00 18,7 9,5 13 7 - - W 1034,5 10 0 0,0
25.05.2020 21:00:00 20,7 9,7 18 10 - - SSW 1034,0 35 6 0,0
25.05.2020 20:00:00 23,5 3,7 15 8 - - W 1033,2 10 60 0,0
25.05.2020 19:00:00 24,9 4,7 9 5 - - WNW 1033,3 10 60 0,0
25.05.2020 18:00:00 25,6 3,5 13 7 - - WNW 1033,4 10 60 0,0
25.05.2020 17:00:00 25,0 3,7 13 7 - - WNW 1033,5 10 60 0,0
25.05.2020 16:00:00 25,8 5,1 13 7 - - WNW 1033,6 10 60 0,0
25.05.2020 15:00:00 25,1 5,8 11 6 - - - 1033,9 10 60 0,0
25.05.2020 14:00:00 23,4 6,0 13 7 - - W 1034,2 10 60 0,0
25.05.2020 13:00:00 23,0 7,6 8 4 - - WSW 1034,5 40 60 0,0
25.05.2020 12:00:00 23,4 8,7 11 6 - - WSW 1034,7 35 60 0,0
25.05.2020 11:00:00 21,3 9,2 8 4 - - SSW 1034,9 10 60 0,0
25.05.2020 10:00:00 19,0 8,3 8 4 - - SSW 1035,3 10 60 0,0
25.05.2020 09:00:00 17,5 7,7 4 2 - - - 1035,4 10 60 0,0
25.05.2020 08:00:00 14,4 6,3 4 2 - - - 1035,3 10 60 0,0
25.05.2020 07:00:00 12,4 8,7 5 3 - - NW 1035,1 25 30 0,0
25.05.2020 06:00:00 10,6 8,3 8 4 - - NW 1034,9 10 0 0,0
25.05.2020 05:00:00 10,7 8,0 5 3 - - WNW 1034,6 10 0 0,0
25.05.2020 04:00:00 11,5 8,6 8 4 - - W 1034,3 10 0 0,0
25.05.2020 03:00:00 11,9 8,3 8 4 - - W 1034,2 25 0 0,0
25.05.2020 02:00:00 12,9 8,4 4 2 - - W 1034,0 10 0 0,0
25.05.2020 01:00:00 14,2 8,4 8 4 - - WNW 1033,9 10 - 0,0
25.05.2020 00:00:00 15,9 8,4 13 7 - - WNW 1033,5 10 0 0,0
24.05.2020 23:00:00 17,0 9,2 13 7 - - WNW 1033,2 10 0 0,0
24.05.2020 22:00:00 18,5 8,5 13 7 - - W 1032,7 10 0 0,0
24.05.2020 21:00:00 19,0 7,0 4 2 - - - 1032,2 10 24 0,0
24.05.2020 20:00:00 20,9 6,9 9 5 - - WNW 1031,8 10 54 0,0
24.05.2020 19:00:00 20,6 6,9 11 6 - - NW 1031,4 10 12 0,0
24.05.2020 18:00:00 21,2 7,0 13 7 - - NW 1031,2 40 18 0,0
24.05.2020 17:00:00 21,2 6,7 18 10 - - WNW 1031,0 10 18 0,0
24.05.2020 16:00:00 21,2 6,7 15 8 - - NW 1030,8 45 36 0,0
24.05.2020 15:00:00 21,2 7,1 22 12 - - WNW 1030,9 10 54 0,0
24.05.2020 14:00:00 20,9 8,0 22 12 - - W 1030,9 10 42 0,0
24.05.2020 13:00:00 19,4 7,8 24 13 - - W 1030,7 10 36 0,0
24.05.2020 12:00:00 19,1 7,7 29 16 - - W 1030,5 30 54 0,0
24.05.2020 11:00:00 17,6 8,3 28 15 - - W 1030,6 10 42 0,0
24.05.2020 10:00:00 15,9 8,8 24 13 - - WNW 1030,3 10 6 0,0
24.05.2020 09:00:00 14,8 9,1 22 12 - - W 1030,0 10 0 0,0
24.05.2020 08:00:00 13,5 9,2 15 8 - - WSW 1029,5 10 0 0,0
24.05.2020 07:00:00 12,0 8,9 16 9 - - WSW 1028,9 10 0 0,0
24.05.2020 06:00:00 11,4 8,5 16 9 - - WSW 1028,3 10 0 0,0
24.05.2020 05:00:00 11,1 8,1 16 9 - - WSW 1028,3 10 0 0,0
24.05.2020 04:00:00 10,7 7,4 21 11 - - W 1028,2 19 0 0,0
24.05.2020 03:00:00 10,6 6,8 16 9 - - WSW 1027,9 19 0 0,0
24.05.2020 02:00:00 11,0 6,5 22 12 - - WSW 1027,9 20 0 0,0
24.05.2020 01:00:00 11,7 6,5 22 12 - - WSW 1028,0 10 - 0,0
24.05.2020 00:00:00 11,6 6,4 22 12 - - W 1027,6 10 0 0,0
23.05.2020 23:00:00 12,2 5,9 24 13 - - W 1027,2 24 0 0,0
23.05.2020 22:00:00 13,0 4,9 29 16 50 27 W 1026,5 10 0 0,0
23.05.2020 21:00:00 14,2 2,9 34 18 63 34 W 1025,8 10 0 0,0
23.05.2020 20:00:00 15,2 2,8 37 20 55 30 W 1025,2 40 42 0,0
23.05.2020 19:00:00 16,8 2,5 46 25 61 33 W 1024,5 10 54 0,0
23.05.2020 18:00:00 17,9 2,6 34 18 68 37 W 1024,1 10 48 0,0
23.05.2020 17:00:00 18,4 3,5 41 22 65 35 W 1023,5 10 48 0,0
23.05.2020 16:00:00 19,3 4,1 37 20 63 34 W 1022,8 10 48 0,0
23.05.2020 15:00:00 18,7 2,2 35 19 57 31 W 1022,1 10 54 0,2
23.05.2020 14:00:00 16,8 9,2 28 15 57 31 W 1021,9 10 42 1,4
23.05.2020 13:00:00 15,3 4,8 29 16 61 33 W 1022,0 10 24 0,0

tt = temperature
td = dewpoint
ff = wind speed
fx = gusts
dd = wind direction
ppp = reduced air pressure
vv = visibility
sd = sunshine duration
rr = precipitation

Next stations